This demonstration page uses our WeatherBlox Daily Observations layout. Learn more.

Left ArrowRight Arrow

39.12711, -84.51439

Hourly Observations for September 22, 2016

Temp ( °F °C ) Dew Point ( °F °C ) Humidity (%) Winds ( mph kmh ) Pressure ( in mb ) Visibility ( mi km ) Precip ( " mm )
12:53 am 00:53 Clear with Mist and Fog 62 16.7 62 16.7 100 100 Calm 30.11 1020 3 5 0.00 0.00
1:06 am 01:06 Clear with Mist and Fog 63 17 63 17 100 100 Calm 30.09 1019 2 3 0.00 0.00
1:16 am 01:16 Clear with Mist and Fog 63 17 63 17 100 100 Calm 30.09 1019 3 5 0.00 0.00
1:27 am 01:27 Clear with Mist and Fog 62 16.7 62 16.7 100 100 Calm 30.09 1019 1 1 0.00 0.00
1:43 am 01:43 Clear with Mist and Fog 60 15.6 60 15.6 100 100 Calm 30.09 1019 2 3 0.00 0.00
1:53 am 01:53 Clear with Mist and Fog 62 16.7 62 16.7 100 100 Calm 30.11 1020 4 6 0.00 0.00
2:12 am 02:12 Clear with Mist and Fog 63 17 63 17 100 100 Calm 30.09 1019 2 3 0.00 0.00
2:21 am 02:21 Clear with Mist and Fog 61 16.1 61 16.1 100 100 Calm 30.09 1019 4 6 0.00 0.00
2:25 am 02:25 Clear with Mist and Fog 60 15.6 60 15.6 100 100 Calm 30.09 1019 2 3 0.00 0.00
2:35 am 02:35 Clear with Mist and Fog 61 16.1 61 16.1 100 100 Calm 30.09 1019 4 6 0.00 0.00
2:38 am 02:38 Clear with Mist and Fog 63 17 63 17 100 100 Calm 30.09 1019 2 3 0.00 0.00
2:53 am 02:53 Clear with Mist and Fog 61 16.1 61 16.1 100 100 NNE 6 9 30.12 1020 2 3 0.00 0.00
3:40 am 03:40 Clear with Mist and Fog 60 15.6 60 15.6 100 100 E 3 6 30.09 1019 2 3 0.00 0.00
3:50 am 03:50 Clear with Mist and Fog 61 16 61 16 100 100 ENE 3 6 30.09 1019 3 5 0.00 0.00
3:53 am 03:53 Clear with Mist and Fog 60 15.6 60 15.6 100 100 ENE 3 6 30.11 1020 4 6 0.00 0.00
4:33 am 04:33 Clear with Mist and Fog 60 15.6 60 15.6 100 100 ENE 3 6 30.09 1019 2 3 0.00 0.00
4:53 am 04:53 Clear with Mist and Fog 59 15 59 15 100 100 Calm 30.09 1019 2 3 0.00 0.00
5:15 am 05:15 Clear with Mist and Fog 60 15.6 60 15.6 100 100 Calm 30.09 1019 2 2 0.00 0.00
5:33 am 05:33 Clear with Mist and Fog 60 15.6 60 15.6 100 100 ENE 3 6 30.09 1019 3 5 0.00 0.00
5:41 am 05:41 Clear with Mist and Fog 60 15.6 60 15.6 100 100 Calm 30.09 1019 2 2 0.00 0.00
5:51 am 05:51 Clear with Mist and Fog 61 16 61 16 100 100 Calm 30.09 1019 3 5 0.00 0.00
5:53 am 05:53 Clear with Mist and Fog 60 15.6 60 15.6 100 100 Calm 30.10 1019 5 8 0.00 0.00
6:01 am 06:01 Clear with Mist and Fog 60 15.6 60 15.6 100 100 ENE 3 6 30.09 1019 2 3 0.00 0.00
6:13 am 06:13 Clear with Mist and Fog 59 15 59 15 100 100 ENE 5 7 30.12 1020 3 5 0.00 0.00
6:53 am 06:53 Clear with Patchy Fog 61 16.1 61 16.1 100 100 Calm 30.12 1020 7 11 0.00 0.00
7:22 am 07:22 Clear with Patchy Fog 59 15 59 15 100 100 Calm 30.15 1021 2 2 0.00 0.00
7:29 am 07:29 Sunny with Patchy Fog 59 15 59 15 100 100 NE 3 6 30.15 1021 7 11 0.00 0.00
7:53 am 07:53 Sunny with Patchy Fog 59 15 59 15 100 100 ENE 3 6 30.14 1021 7 11 0.00 0.00
8:53 am 08:53 Sunny 65 18.3 63 17.2 93 93 Calm 30.14 1021 8 13 0.00 0.00
9:53 am 09:53 Sunny 71 21.7 64 17.8 79 79 NNE 6 9 30.12 1020 10 16 0.00 0.00
10:53 am 10:53 Sunny 75 23.9 66 18.9 74 74 Calm 30.13 1020 10 16 0.00 0.00
11:53 am 11:53 Sunny 80 26.7 68 20 67 67 Calm 30.12 1020 10 16 0.00 0.00
12:53 pm 12:53 Sunny 83 28.3 64 17.8 53 53 SW 3 6 30.11 1020 10 16 0.00 0.00
1:53 pm 13:53 Sunny 85 29.4 62 16.7 46 46 S 5 7 30.09 1019 10 16 0.00 0.00
2:53 pm 14:53 Sunny 86 30 61 16.1 43 43 Calm 30.06 1018 10 16 0.00 0.00
3:53 pm 15:53 Sunny 88 31.1 63 17.2 43 43 NW 3 6 30.04 1017 10 16 0.00 0.00
4:53 pm 16:53 Sunny 86 30 62 16.7 45 45 SE 5 7 30.02 1017 10 16 0.00 0.00
5:53 pm 17:53 Sunny 87 30.6 63 17.2 45 45 Calm 30.02 1017 10 16 0.00 0.00
6:53 pm 18:53 Sunny 80 26.7 70 21.1 71 71 E 3 6 30.02 1017 10 16 0.00 0.00
7:53 pm 19:53 Clear 72 22.2 68 20 87 87 Calm 30.02 1017 10 16 0.00 0.00
8:53 pm 20:53 Clear 68 20 67 19.4 96 96 Calm 30.03 1017 10 16 0.00 0.00
9:53 pm 21:53 Clear 67 19.4 67 19.4 100 100 Calm 30.04 1017 10 16 0.00 0.00
10:53 pm 22:53 Clear 67 19.4 66 18.9 97 97 Calm 30.04 1017 10 16 0.00 0.00
11:53 pm 23:53 Clear 65 18.3 65 18.3 100 100 Calm 30.04 1017 7 11 0.00 0.00

Powered by AerisWeather